Theta_e
304 303 303 303 303 304 305 304 304 305 307 307 308 309 309 309 309 310 310 308 307 306 305 305 305 308 308 309 309 308 306 306
303 303 303 303 303 304 304 304 305 306 306 307 307 308 309 309 310 310 309 308 307 306 304 304 305 308 309 310 309 309 309 308
302 302 303 303 303 303 304 305 305 306 306 307 307 309 309 308 307 308 310 310 309 307 303 304 305 305 303 307 309 308 308 307
303 303 302 302 303 303 303 304 305 306 306 306 307 308 308 307 306 307 308 310 310 306 303 303 304 301 298 299 302 305 305 305
303 302 302 303 303 303 303 304 305 305 306 306 307 307 306 305 305 306 307 309 310 306 303 303 303 303 297 297 298 304 304 305
303 303 303 303 304 304 304 304 305 305 306 305 306 305 302 302 304 304 308 309 309 306 305 303 303 302 297 296 297 305 305 304
305 304 304 304 303 303 304 303 304 304 305 305 305 305 300 300 301 302 305 308 308 306 303 303 303 304 296 295 299 304 304 303
303 303 304 304 303 302 303 303 304 304 305 306 306 305 301 299 300 301 303 304 303 302 302 303 300 303 297 294 297 302 302 301
303 303 302 303 303 303 303 303 304 305 306 307 308 306 305 302 301 302 302 302 303 303 302 304 304 302 302 294 294 303 301 300
302 301 302 303 303 303 303 303 305 306 307 308 308 309 305 304 305 305 303 303 303 303 303 303 304 304 297 296 293 293 297 301
302 302 302 302 304 304 303 305 305 307 307 308 308 307 308 306 305 306 304 305 303 302 300 300 301 303 304 296 294 294 297 300
301 301 301 301 303 304 305 305 307 307 307 307 308 307 306 308 306 305 304 304 304 303 302 301 301 302 303 303 302 303 300 301
302 301 301 302 304 304 306 307 307 307 306 306 307 306 306 306 306 305 305 307 304 304 305 304 302 302 302 295 293 299 301 299
301 302 302 303 305 305 306 307 306 306 306 305 305 305 305 305 305 306 296 294 293 292 291 294 303 295 292 291 290 290 290 291
301 302 304 304 305 305 307 307 307 307 308 308 308 303 306 305 305 305 304 302 293 293 291 291 291 292 291 290 290 290 290 291
303 304 304 305 305 306 307 307 307 307 308 297 307 307 307 305 305 305 305 303 303 304 298 295 293 290 290 290 291 293 301 298
304 304 304 305 305 306 308 308 306 307 307 308 308 307 306 302 304 304 304 304 304 303 304 301 298 292 291 291 292 303 301 300
302 302 304 305 305 307 308 307 307 308 308 300 298 307 305 304 305 304 304 304 304 304 304 304 304 301 303 303 304 304 301 300
304 305 306 306 306 308 307 308 308 308 309 310 300 306 305 304 304 304 304 304 304 303 304 300 285 300 302 302 303 302 300 297
305 305 307 308 308 308 308 309 310 309 309 308 308 305 304 304 303 305 305 304 303 303 304 302 287 303 302 302 302 302 299 299
Wind_Speed
13 11 9 7 5 3 2 3 4 5 5 5 6 6 6 6 6 6 6 7 8 9 9 9 8 8 6 5 6 7 7 6
13 11 9 7 6 4 3 3 3 4 4 4 5 6 6 6 5 4 5 5 6 8 9 8 8 8 8 7 6 7 9 9
14 12 9 8 6 5 3 2 2 3 3 2 5 6 6 6 6 5 5 4 5 7 9 8 10 9 9 11 9 9 9 11
14 12 10 8 6 5 4 3 3 1 1 3 5 5 6 6 7 7 5 4 5 6 9 9 8 6 12 14 12 9 10 10
14 12 10 8 7 6 5 4 3 3 0 3 5 6 6 6 6 8 7 5 4 5 7 8 8 8 13 14 15 7 8 9
13 11 9 8 7 6 5 4 3 3 1 3 5 5 6 5 6 7 7 5 4 4 6 6 7 7 11 13 16 7 6 8
11 10 9 9 7 6 5 5 4 4 1 3 5 5 6 6 6 6 6 5 5 5 6 6 7 8 11 13 12 7 9 9
12 11 9 8 7 7 6 5 5 4 1 3 4 5 5 6 5 6 5 5 5 5 5 4 4 7 8 11 10 6 8 8
11 10 8 8 8 7 6 6 6 3 2 2 2 2 2 3 4 4 4 4 4 4 4 4 5 5 7 7 8 6 6 7
10 9 9 8 7 7 6 6 4 2 3 3 2 1 2 2 2 2 3 3 3 3 5 5 3 5 2 2 5 5 6 6
9 9 10 9 7 6 7 5 4 1 4 3 2 3 3 3 4 5 5 4 4 4 4 5 6 5 6 2 5 4 4 6
9 10 10 9 7 6 5 5 2 4 4 2 1 2 3 3 4 4 5 5 5 5 5 6 6 6 5 5 6 6 5 6
9 9 9 9 8 7 6 5 3 2 2 1 1 1 3 4 4 4 5 6 6 7 6 5 6 7 5 4 5 7 7 6
9 10 9 10 8 6 5 5 4 2 2 0 2 3 3 3 5 6 9 12 10 11 14 10 8 11 12 12 11 8 10 9
11 12 11 9 8 7 6 5 4 3 2 1 2 4 3 4 4 5 6 3 14 11 11 11 13 18 10 13 10 10 8 6
12 11 10 8 7 6 5 5 4 3 4 4 4 4 4 4 5 5 5 5 7 8 6 7 7 7 9 8 6 6 7 3
11 10 9 7 6 6 5 5 5 5 5 3 3 4 4 5 6 5 5 6 7 8 8 6 3 7 9 6 5 7 6 7
11 10 9 7 6 5 5 6 5 5 6 7 5 5 5 5 4 4 5 5 7 7 7 8 7 4 4 3 6 7 7 6
10 8 7 7 6 4 5 6 7 5 4 4 3 5 5 5 4 4 5 6 6 7 7 7 5 4 5 5 7 6 6 5
8 6 6 6 5 5 5 6 6 5 5 4 4 5 4 4 4 4 5 6 6 7 7 5 2 5 6 6 7 7 5 4
Wind_Direction
161 161 163 159 159 153 101 52 66 48 40 53 51 39 25 22 27 22 21 25 30 25 20 17 9 6 0 13 17 18 13 5
166 168 166 160 163 151 144 88 87 49 62 52 35 16 6 354 2 9 7 22 26 20 16 16 14 15 18 5 360 353 350 347
173 172 168 167 166 166 162 121 109 41 88 42 18 360 1 2 4 344 329 349 14 16 17 21 21 24 20 1 355 347 343 340
174 170 166 169 176 179 167 152 126 79 131 18 4 358 360 7 5 358 347 355 13 18 24 16 13 14 2 2 351 339 339 334
173 171 169 170 175 178 178 160 153 157 178 9 6 354 355 357 6 11 12 11 14 30 20 14 13 4 357 348 345 334 335 344
169 164 165 165 167 177 167 162 165 158 48 10 10 1 356 359 15 14 19 19 25 15 7 4 355 359 349 346 341 355 3 10
161 159 161 163 169 167 167 168 179 156 59 14 7 3 14 19 19 13 23 18 22 6 353 344 346 350 5 349 336 353 5 8
150 153 159 166 164 163 183 176 184 148 43 1 6 32 35 39 29 28 13 2 0 344 342 328 334 343 359 343 347 345 4 354
145 153 162 168 153 172 183 180 182 134 274 307 18 46 29 31 37 23 13 10 17 3 327 311 319 331 330 338 342 336 350 347
152 153 159 151 157 182 181 184 168 185 271 289 308 296 277 282 312 311 304 321 339 334 320 306 297 302 256 355 328 325 327 323
159 160 156 159 171 188 179 171 177 231 280 294 315 302 266 268 281 290 285 266 288 298 304 314 316 325 320 249 289 318 321 311
160 160 164 165 175 181 189 166 193 269 281 290 319 332 344 309 291 277 277 276 276 273 282 296 308 308 308 327 337 331 308 296
164 165 168 168 169 178 189 204 202 223 260 268 310 317 320 312 298 288 282 265 267 282 279 283 292 298 328 331 317 313 314 321
163 166 165 160 167 177 178 171 179 211 248 193 2 310 312 312 319 322 228 248 264 245 254 252 272 247 287 286 290 266 270 270
161 159 159 159 163 161 158 151 158 177 257 268 290 270 308 324 321 308 315 273 231 248 247 242 232 262 292 283 292 295 273 283
156 156 159 161 165 160 159 160 166 222 255 234 274 295 310 306 311 298 286 296 305 311 232 240 245 243 260 267 279 266 305 286
161 161 166 176 180 175 178 175 193 237 249 261 285 293 295 306 298 295 285 290 295 302 307 293 182 201 237 218 242 324 338 322
169 177 181 191 196 187 190 197 209 236 242 247 262 290 306 307 305 298 309 312 314 311 316 334 333 306 307 331 343 349 347 343
188 185 188 208 216 179 209 227 215 229 245 259 254 271 297 316 310 313 324 324 326 329 338 22 348 313 357 358 350 3 14 348
186 199 216 224 223 218 201 209 220 241 259 272 282 301 320 320 338 332 343 347 355 355 360 36 291 23 10 13 12 16 50 36